Regional Weather Roundup
Issued by NWS

Home | Current Version | Previous Version | Graphics & Text | Print | Product List | Glossary On
Versions: 1 2 3 4 5 6 7 8 9 10 11 12 13 14 15 16 17 18 19 20 21 22 23 24 25 26 27 28 29 30 31 32 33 34 35 36 37 38 39 40 41 42 43 44 45 46 47 48 49 50
000
ASUS43 KOAX 241702
RWRNE

WEATHER ROUNDUP FOR NEBRASKA
NATIONAL WEATHER SERVICE OMAHA NE
1100 AM CST SAT JAN 24 2015

NOTES: SATELLITE DATA IS BEING USED TO AUGMENT CLOUD COVER ABOVE
       12000 FEET.
       "FAIR" INDICATES FEW OR NO CLOUDS BELOW 12,000 FEET WITH NO
       SIGNIFICANT WEATHER AND/OR OBSTRUCTIONS TO VISIBILITY.

  * THESE STATIONS DO NOT REPORT WEATHER SUCH AS RAIN...SNOW OR FOG.

NEZ001>004-019>022-054>056-241800-
NEBRASKA PANHANDLE

CITY           SKY/WX    TMP DP  RH WIND       PRES   REMARKS
SCOTTSBLUFF    CLOUDY    42  24  49 W22G29    29.98S
ALLIANCE       CLOUDY    39  27  62 W18       29.93F WCI  30
CHADRON        CLOUDY    37  28  70 SW7       29.94R WCI  32
SIDNEY         CLOUDY    40  21  46 W9        30.00S WCI  34
$$

NEZ057>060-069>072-079>082-241800-
SOUTHWEST NEBRASKA

CITY           SKY/WX    TMP DP  RH WIND       PRES   REMARKS
NORTH PLATTE   CLOUDY    38  26  62 W9        29.93F WCI  31
IMPERIAL       CLOUDY    39  25  57 W9        29.99F WCI  33
LEXINGTON      CLOUDY    42  31  64 W12       29.92F
MCCOOK         CLOUDY    40  27  59 W14       29.98F WCI  32
$$

NEZ005>010-023>029-035>040-094-241800-
NORTH CENTRAL NEBRASKA

CITY           SKY/WX    TMP DP  RH WIND       PRES   REMARKS
VALENTINE      CLOUDY    45  28  51 W13       29.83F
AINSWORTH      CLOUDY    42  28  58 W14       29.83F
BROKEN BOW     CLOUDY    40  28  62 W12       29.89F WCI  33
ORD            CLOUDY    39  27  62 W9        29.87F WCI  33
$$

NEZ041-046>049-061>064-073>077-083>087-241800-
SOUTH CENTRAL NEBRASKA

CITY           SKY/WX    TMP DP  RH WIND       PRES   REMARKS
GRAND ISLAND   CLOUDY    44  29  55 W15       29.91F
AURORA         PTSUNNY   44  30  57 W12G18    29.89F
HASTINGS       PTSUNNY   42  27  55 W15       29.91F
KEARNEY *      CLOUDY    43  25  49 W15G22    29.91F
$$

NEZ011>018-030>034-042>045-241800-
NORTHEAST NEBRASKA

CITY           SKY/WX    TMP DP  RH WIND       PRES   REMARKS
NORFOLK        PTSUNNY   44  30  57 W8        29.82S
ALBION         CLOUDY    42  29  59 NW12G17   29.86S
BLAIR          SUNNY     44  32  63 W10       29.83F
COLUMBUS *     MOSUNNY   39  28  65 W13       29.87S WCI  32
FREMONT        MOSUNNY   45  32  60 W10       29.86S
TEKAMAH        MOSUNNY   45  33  63 SW9       29.83F
$$

NEZ050>053-065>068-078-088>093-241800-
SOUTHEAST NEBRASKA

CITY           SKY/WX    TMP DP  RH WIND       PRES   REMARKS
LINCOLN        SUNNY     45  30  55 W10       29.90F
OMAHA EPPLEY   PTSUNNY   46  31  55 W7        29.85F
FALLS CITY     SUNNY     46  30  53 SW16      29.89F
NEBRASKA CITY  SUNNY     45  28  51 W14       29.87F
$$

NEZ044-045-051>053-067-241800-
OMAHA AREA

CITY           SKY/WX    TMP DP  RH WIND       PRES   REMARKS
OMAHA EPPLEY   PTSUNNY   46  31  55 W7        29.85F
BLAIR          SUNNY     44  32  63 W10       29.83F
FREMONT        MOSUNNY   45  32  60 W10       29.86S
OFFUTT AFB     SUNNY     44  32  61 W8        29.85F
WAHOO          FAIR      47  29  50 W9        29.85F
$$


USA.gov is the U.S. government's official web portal to all federal, state and local government web resources and services.